Location: Fort Worth, Tx
(32.7431°N, 97.3695°W)
Time: 06:43:21
(UTC-05:00)

Vanguard 2 - Visible Passes

Search period start: 23 February 2024 00:00
Search period end: 04 March 2024 00:00
Orbit: 553 x 2919 km, 32.9° (Epoch: 22 February)

Date Brightness Start Highest point End Pass type
(mag) Time Alt. Az. Time Alt. Az. Time Alt. Az.
23 Feb 10.9 00:15:11 10° W 00:21:30 35° W 00:21:30 35° W visible
23 Feb 11.7 02:59:35 10° SE 02:59:35 10° SE 02:22:42 - WNW visible
23 Feb 10.9 05:00:49 25° S 05:00:49 25° S 05:06:35 10° SSE visible
23 Feb 9.7 20:12:45 10° SW 20:22:02 57° SSE 20:33:25 19° E visible
23 Feb 9.8 22:20:42 10° W 22:33:04 88° S 22:34:37 78° E visible
24 Feb 11.0 00:30:36 10° W 00:35:49 30° W 00:35:49 30° W visible
24 Feb 11.6 03:14:15 11° SE 03:14:15 11° SE 03:14:27 10° SE visible
24 Feb 11.0 05:15:29 20° SSW 05:15:29 20° SSW 05:20:16 10° S visible
24 Feb 9.6 20:27:41 10° SW 20:37:08 67° SSE 20:47:42 23° E visible
24 Feb 9.8 22:36:02 10° W 22:48:35 90° N 22:48:53 88° ENE visible
25 Feb 11.2 00:46:01 10° W 00:50:05 25° W 00:50:05 25° W visible
25 Feb 11.6 03:28:53 11° SE 03:28:53 11° SE 03:29:07 10° SE visible
25 Feb 11.2 05:30:06 15° SSW 05:30:06 15° SSW 05:33:13 10° S visible
25 Feb 9.5 20:42:45 10° WSW 20:52:22 76° SSE 21:01:55 27° E visible
25 Feb 9.8 22:51:23 10° W 23:03:06 82° W 23:03:06 82° W visible
26 Feb 11.3 01:01:25 10° WNW 01:04:17 20° W 01:04:17 20° W visible
26 Feb 11.6 03:43:29 10° SSE 03:43:29 10° SSE 03:43:31 10° SSE visible
26 Feb 9.5 20:57:55 10° WSW 21:07:42 83° SSE 21:16:06 32° E visible
26 Feb 9.9 23:06:44 10° W 23:17:17 71° W 23:17:17 71° W visible
27 Feb 11.5 01:16:50 10° WNW 01:18:28 15° W 01:18:28 15° W visible
27 Feb 9.5 21:13:08 10° W 21:23:05 88° S 21:30:15 38° E visible
27 Feb 10.1 23:22:05 10° W 23:31:26 61° W 23:31:26 61° W visible
28 Feb 11.7 01:32:17 10° WNW 01:32:37 11° W 01:32:37 11° W visible
28 Feb 9.5 21:28:25 10° W 21:38:32 89° N 21:44:23 45° E visible
28 Feb 10.3 23:37:23 10° W 23:45:34 52° W 23:45:34 52° W visible
29 Feb 9.2 19:35:44 10° WSW 19:43:18 75° SSE 19:56:19 10° E visible
29 Feb 9.5 21:43:40 10° W 21:53:58 89° N 21:58:30 54° E visible
29 Feb 10.5 23:52:42 10° W 23:59:40 43° W 23:59:40 43° W visible
01 Mar 9.1 19:50:51 10° WSW 19:58:33 83° SSE 20:11:26 11° E visible
01 Mar 9.5 21:58:57 10° W 22:09:25 89° S 22:12:37 63° E visible
02 Mar 10.7 00:08:02 10° W 00:13:47 35° W 00:13:47 35° W visible
02 Mar 9.1 20:06:02 10° W 20:13:53 89° S 20:25:32 15° E visible
02 Mar 9.5 22:14:12 10° W 22:24:49 84° SSW 22:26:43 72° ESE visible
03 Mar 10.9 00:23:26 10° W 00:27:53 27° W 00:27:53 27° W visible
03 Mar 9.2 20:21:15 10° W 20:29:14 89° N 20:39:38 19° E visible
03 Mar 9.6 22:29:27 10° W 22:40:10 78° SSW 22:40:50 76° S visible
